Lid_Strength_Index
2 2 4 6 7 8 9 11 11 10 10 10 10 10 11 12 12 12 12 11 12 12 12 13 13 13 14 14 14 14 15 14 15 14 12 12 12 12 11 10 10 10 10
2 4 6 8 9 10 10 10 11 10 10 10 10 11 12 12 12 12 11 12 12 13 13 14 13 13 14 14 14 14 13 13 13 15 13 13 13 12 12 12 11 10 10
4 7 9 10 11 11 10 10 10 10 10 11 11 12 12 12 13 12 12 13 13 14 14 14 14 14 14 14 14 13 13 13 14 14 14 13 13 12 12 12 11 11 10
8 9 10 11 11 10 10 10 11 10 11 11 12 13 12 13 13 13 13 14 14 14 14 14 14 14 14 14 13 13 13 14 14 14 14 14 13 12 12 13 13 11 11
9 10 12 11 11 11 10 10 11 11 12 12 13 13 12 13 13 14 14 15 16 15 14 13 13 12 12 12 13 13 14 15 14 14 14 14 14 13 14 13 13 12 10
10 11 12 12 11 11 11 11 12 12 12 13 13 12 14 14 13 13 15 16 15 16 15 14 14 13 13 13 13 13 14 14 14 14 14 14 13 13 13 13 13 12 13
11 13 12 12 13 12 11 12 13 13 13 14 14 14 15 15 13 13 13 15 16 16 16 15 14 13 13 13 14 14 13 13 12 13 14 13 13 12 12 13 12 11 12
11 12 12 12 14 14 13 15 15 13 14 14 14 14 15 15 13 13 13 16 16 16 15 15 15 15 14 14 14 14 13 13 12 12 12 12 11 10 11 10 10 11 12
11 11 11 12 14 15 15 15 15 15 15 15 15 16 15 16 13 14 15 15 16 15 15 15 15 15 13 13 14 14 14 13 12 11 10 10 10 9 9 10 11 12 13
10 10 10 12 13 14 14 15 15 14 15 15 15 15 15 15 13 14 15 15 15 15 15 15 14 14 13 13 14 13 14 13 12 12 11 10 10 10 9 10 11 12 13
8 9 11 11 12 13 14 15 15 15 15 15 15 15 14 14 15 13 13 15 15 16 16 16 15 13 13 12 12 13 13 12 11 11 10 10 10 10 10 11 11 11 12
9 10 12 12 13 14 15 15 15 15 15 15 15 14 14 15 14 13 13 14 14 16 16 16 15 13 13 12 12 11 11 11 11 10 10 11 11 11 10 10 10 11 11
12 13 14 14 14 14 15 15 15 15 15 15 15 15 15 15 15 14 14 14 13 15 15 14 13 13 12 12 11 11 11 11 11 11 11 11 11 10 10 10 12 11 11
13 14 14 14 15 15 14 14 14 14 14 14 15 16 15 16 17 17 16 16 15 15 14 14 15 15 13 13 12 11 11 11 11 11 12 15 14 15 12 12 14 13 12
14 14 14 15 15 14 15 14 14 14 13 14 15 15 16 17 17 16 16 16 15 14 14 15 15 13 14 12 12 11 11 10 11 11 15 15 15 14 12 14 13 13 14
14 14 14 14 14 15 15 15 14 13 13 14 14 15 15 15 15 14 14 13 13 14 15 16 15 14 13 12 11 11 11 11 11 11 11 13 14 15 14 13 13 14 14
14 14 14 14 14 14 14 15 17 16 14 14 14 14 14 14 14 13 13 13 13 14 16 15 14 13 13 12 11 10 11 10 10 10 11 13 14 14 14 13 14 14 14
12 13 13 13 13 14 15 15 15 16 16 16 15 15 14 14 13 13 13 14 15 14 13 13 13 12 12 11 11 11 10 10 10 10 10 10 16 15 14 14 14 16 15
12 13 13 14 14 14 15 16 16 16 16 17 17 16 14 13 13 13 13 14 14 14 13 12 12 12 11 10 11 11 11 11 10 10 10 11 15 14 15 13 13 13 13
13 14 14 14 15 16 16 16 16 16 17 17 17 16 16 16 16 16 15 14 14 13 12 12 11 11 11 11 11 11 11 11 11 11 10 11 18 15 15 14 13 12 11
13 14 14 15 15 15 15 16 16 16 16 16 17 18 17 16 16 15 15 15 13 13 12 12 11 11 11 11 11 11 11 11 11 11 10 10 16 12 14 13 12 11 10
13 13 14 14 14 15 15 15 16 16 15 16 16 16 16 15 15 15 14 13 12 12 12 11 11 11 11 11 10 11 11 11 12 11 10 10 12 15 14 14 13 11 11
13 13 13 13 13 13 14 14 14 14 15 16 16 16 15 15 14 14 13 12 12 11 11 11 11 11 11 11 11 10 10 10 11 17 17 17 15 15 15 15 15 13 11
13 12 13 12 12 13 13 14 14 14 15 16 15 15 15 14 14 13 12 12 12 12 12 11 12 12 12 11 11 10 10 12 16 16 16 15 15 15 14 14 14 16 15
12 12 12 12 12 13 13 14 14 14 15 14 14 14 13 13 12 12 12 12 12 12 12 12 11 11 11 11 11 12 13 13 15 17 15 15 16 17 16 16 17 15 16
11 12 12 12 12 13 13 14 14 14 13 13 13 13 13 12 12 12 12 12 12 12 12 12 11 11 12 13 14 17 19 18 18 18 16 15 15 17 16 16 16 16 16